FENGYUN 1C DEB

Satellite information

Favourite Embed

Satellite Type and Status

DEBRISIN ORBIT

Key statistics

Satellite FENGYUN 1C DEB at a glance.

Uptime

9658

Days in orbit

Revolutions

≈ 14.1

Per day

Orbit

SSO

Sun Synchronous Orbit

Inclination

98.7

Latest

Satellite identification and parameters

Extended collection of information and parameters for FENGYUN 1C DEB.

Object identification

Identified? True

Debris? True

Object name: FENGYUN 1C DEB

International designator: 1999-025EKN

Object number (NORAD): 37594

Object ID (CCSDS): 37594

Country: PEOPLES REPUBLIC OF CHINA (PRC)

Current information (Y/N): Y

RCS size: SMALL

Orbital parameters

Period: 102.053 minutes

Inclination: 98.7415 deg

SMA: 7233.98 km

Apoapsis: 918.899 km

Periapsis: 792.791 km

RAAN: 317.306 deg

Eccentricy: 0.00871636

Argument of periapsis: 81.4487 deg

Mean anomaly: 279.655 deg

Mean motion: 14.11031703 rev/day

Mean motion (dot): 0.00000552 rev/day2

B* drag term: 0.00031897967 1/REarth

Two-line elements (TLE)

Creation date: Oct. 13, 2025, 10:50 a.m.

Reference frame: TEME

Reference center: EARTH

Epoch: Oct. 13, 2025, 8:19 a.m. UTC

TLE line 0: 0 FENGYUN 1C DEB

TLE line 1: 1 37594U 99025EKN 25286.34691797 .00000552 00000-0 31898-3 0 9996

TLE line 2: 2 37594 98.7415 317.3060 0087164 81.4487 279.6550 14.11031703769100

Live tracking on map

Real-time ground track for satellite FENGYUN 1C DEB.

In-orbit conjunctions

A list of the most updated potential collisions computed for object FENGYUN 1C DEB.

Target Orbit TCA Probability of collision Miss distance Type
SL-16 R/B LEO 2025-08-15 00:39:55 0.0002327669 197.0 (m) ROCKET BODY
COSMOS 1275 DEB LEO 2024-11-09 00:57:10 0.0001413062 845.0 (m) DEBRIS
CZ-6A DEB LEO 2024-10-11 22:02:39 0.0001336547 956.0 (m) DEBRIS
COSMOS 397 DEB * LEO 2024-09-25 02:18:52 0.0003796394 129.0 (m) DEBRIS
METEOR 2-8 DEB LEO 2024-08-21 16:44:08 0.0001193173 340.0 (m) DEBRIS

Associated space launch

Chinese polar orbiting meteorological satellite

FENGYUN 1C DEB was lifted into orbit during the mission ‘Long March 4B | Feng Yun 1C’, on board a Long March 4B space rocket.

The launch took place on May 10, 1999, 1:33 a.m. from Launch Complex 7.

For more information about the launch, click the button.

Launch to space Long March 4B | Feng Yun 1C
Long March 4B | Feng Yun 1C

Agency: N/A

Status: Launch Successful

Launch date: May 10, 1999, 1:33 a.m. UTC

Rocket: Long March 4B

Launch pad: Launch Complex 7

Location: Taiyuan Satellite Launch Center, People's Republic of China

...

Latest news about this satellite

There are no fresh news available about this satellite. Check back as we update our databases every day.


Newsletter sign-up

Weekly statistics, charts and insights to help you stay on top of the space industry.